Location: Barruelo
(41.2448°N, 3.8231°W)
Time: 18:03:09
(UTC+00:00)

Cosmos 1937 Rocket - Visible Passes

Search period start: 07 March 2026 00:00
Search period end: 17 March 2026 00:00
Orbit: 741 x 776 km, 74.0° (Epoch: 7 March)

Date Brightness Start Highest point End Pass type
(mag) Time Alt. Az. Time Alt. Az. Time Alt. Az.
7 Mar 5.7 04:07:07 15° NNW 04:07:07 15° NNW 04:08:15 10° N visible
8 Mar 5.9 03:28:00 15° N 03:28:00 15° N 03:28:53 10° N visible
9 Mar 6.3 02:48:51 12° NNE 02:48:51 12° NNE 02:49:13 10° NNE visible
10 Mar 6.0 03:49:44 11° NNW 03:49:44 11° NNW 03:49:57 10° NNW visible
11 Mar 6.2 03:10:32 11° N 03:10:32 11° N 03:10:48 10° N visible
